Hourly Weather Roundup
Issued by NWS

Current Version | Previous Version | Text Only | Print | Product List | Glossary On
Versions: 1 2 3 4 5 6 7 8 9 10 11 12 13 14 15 16 17 18 19 20 21 22 23 24 25 26 27 28 29 30 31 32 33 34 35 36 37 38 39 40 41 42 43 44 45 46 47 48 49 50
181
NZUS43 KILX 181110
HWRCRS

NWR Hourly Weather Roundup
National Weather Service Lincoln IL
500 AM CST SAT NOV 18 2017


CITY           SKY/WX    TMP DP  RH WIND       PRES   REMARKS
Champaign      CLOUDY    57  53  86 S14       29.43F
Lawrenceville  CLOUDY    62  54  74 S20       29.52F
Peoria         LGT RAIN  50  50 100 N5        29.45S FOG
Springfield    CLOUDY    60  58  92 S14       29.40F
$$


CITY           SKY/WX    TMP DP  RH WIND       PRES   REMARKS
Bloomington    CLOUDY    51  50  96 N7        29.44F FOG
Danville       CLOUDY    56  53  88 SW7       29.45F
Decatur        CLOUDY    60  56  86 S13       29.41F
Effingham      CLOUDY    63  57  81 S13G18    29.49F
Flora          CLOUDY    64  58  80 S14G20    29.49F
Galesburg      RAIN      46  46 100 N15       29.48R
Jacksonville   CLOUDY    60  57  89 S12G17    29.38F
Lacon          CLOUDY    48  47  99 NE6       29.45S FOG
La Salle       CLOUDY    44  43  97 NE14      29.47F FOG
Lincoln        CLOUDY    52  52  99 N5        29.41F
Litchfield     CLOUDY    58  56  92 S16       29.44S

CITY           SKY/WX    TMP DP  RH WIND       PRES   REMARKS
Macomb         LGT RAIN  50  50 100 N15       29.44F
Mattoon        CLOUDY    60  54  80 S12G18    29.46F
Moline         CLOUDY    44  40  85 N10       29.50S FOG
Olney          CLOUDY    61  57  87 S13       29.50F
Paris          CLOUDY    58  55  87 S20       29.49S
Pontiac        DRIZZLE   48  48  98 N10       29.47S
Quincy         LGT RAIN  52  52 100 NE10      29.39F FOG
Rantoul        CLOUDY    52  51  97 NE3       29.45F FOG
Robinson       CLOUDY    60  54  79 S14G21    29.51F
Taylorville    CLOUDY    59  57  91 S14       29.42F
Terre Haute    CLOUDY    61  52  72 S15G22    29.50F
$$


CITY           SKY/WX    TMP DP  RH WIND       PRES   REMARKS
Burlington     LGT RAIN  46  46 100 N20G28    29.43F FOG
Chicago        CLOUDY    46  42  86 N12       29.50S
Des Moines     LGT RAIN  40  38  93 N14G22    29.64R WCI  32
Evansville     CLOUDY    64  56  75 S15G24    29.58F
Indianapolis   CLOUDY    61  52  72 SW22      29.51F
Kansas City    CLOUDY    50  49  96 N23G30    29.49R FOG
Milwaukee      MOCLDY    41  38  89 N6        29.55R
St Louis       CLOUDY    64  61  90 S9        29.41F
$$





USA.gov is the U.S. government's official web portal to all federal, state and local government web resources and services.